�N����,����,�~����,�C��,���x,�C��,����,���ϕ���,�ő�u�ԕ���,�ő厞����,���˗�,�I�_���x,�n�����x,�ő啗���N��,DTYPE
"16/11/19","00:10",0.0,12.6,95.1,1014.5,300.2,0.7,1.1,316.4,0.00,11.9,13.6,"00:03:52",1
"16/11/19","00:20",0.0,12.6,95.4,1014.2,284.3,0.8,1.1,305.1,0.00,11.9,13.7,"00:15:12",1
"16/11/19","00:30",0.0,12.7,95.6,1014.2,310.7,0.7,1.3,315.7,0.00,12.1,13.8,"00:27:44",1
"16/11/19","00:40",0.0,12.7,95.7,1014.2,331.9,1.0,1.4,349.4,0.00,12.1,13.7,"00:36:32",1
"16/11/19","00:50",0.0,12.7,95.8,1013.8,325.0,1.0,1.6,352.7,0.00,12.1,13.7,"00:48:08",1
"16/11/19","01:00",0.2,12.6,96.2,1014.0,274.5,0.6,1.1,322.1,0.00,12.1,13.8,"00:50:08",1
"16/11/19","01:10",0.0,12.8,96.3,1013.8,278.1,0.6,1.1,237.5,0.00,12.3,13.7,"01:03:04",1
"16/11/19","01:20",0.0,12.9,96.4,1013.3,319.8,1.0,1.3,342.1,0.00,12.4,13.8,"01:17:28",1
"16/11/19","01:30",0.2,12.9,96.4,1013.8,313.2,0.6,1.3,325.9,0.00,12.4,13.6,"01:20:08",1
"16/11/19","01:40",0.2,12.9,96.5,1013.0,300.0,0.8,1.6,335.3,0.00,12.4,13.7,"01:32:56",1
"16/11/19","01:50",0.2,12.9,96.6,1012.8,320.7,1.2,1.8,335.2,0.00,12.4,13.9,"01:47:44",1
"16/11/19","02:00",0.2,13.0,96.8,1012.8,284.9,0.8,1.6,333.7,0.00,12.5,13.8,"01:50:48",1
"16/11/19","02:10",0.8,13.1,96.9,1012.8,285.6,0.8,1.6,321.0,0.00,12.7,13.7,"02:04:56",1
"16/11/19","02:20",0.6,13.2,97.0,1012.8,269.7,1.0,1.8,332.7,0.00,12.8,13.7,"02:15:36",1
"16/11/19","02:30",0.2,13.3,97.0,1012.6,327.5,0.8,1.4,3.7,0.00,12.9,13.7,"02:26:16",1
"16/11/19","02:40",0.6,13.2,97.0,1012.6,308.2,0.8,1.3,339.3,0.00,12.8,13.7,"02:30:02",1
"16/11/19","02:50",0.4,13.2,97.3,1012.3,324.3,1.1,1.6,327.0,0.00,12.8,13.7,"02:40:56",1
"16/11/19","03:00",0.4,13.3,97.2,1011.9,318.9,0.8,1.4,331.4,0.00,12.9,13.9,"02:54:56",1
"16/11/19","03:10",0.4,13.3,97.3,1011.6,292.1,0.7,1.0,256.7,0.00,12.9,13.7,"03:05:44",1
"16/11/19","03:20",0.2,13.3,97.4,1011.6,314.0,0.8,1.4,333.5,0.00,12.9,13.7,"03:15:44",1
"16/11/19","03:30",0.0,13.3,97.5,1011.4,290.3,0.8,1.4,303.4,0.00,13.0,13.9,"03:22:16",1
"16/11/19","03:40",0.2,13.3,97.5,1010.9,293.7,0.6,1.1,305.5,0.00,13.0,13.7,"03:31:52",1
"16/11/19","03:50",0.2,13.3,97.6,1011.4,298.4,1.1,1.8,306.1,0.00,13.0,13.7,"03:49:44",1
"16/11/19","04:00",0.2,13.3,97.7,1011.2,324.2,1.0,1.9,317.5,0.00,13.0,13.8,"03:58:48",1
"16/11/19","04:10",0.2,13.3,97.6,1010.4,292.9,1.0,2.0,332.8,0.00,13.0,13.7,"04:01:04",1
"16/11/19","04:20",0.0,13.2,97.7,1010.9,287.0,0.8,1.4,307.7,0.00,12.9,13.8,"04:18:32",1
"16/11/19","04:30",0.0,13.3,97.8,1010.7,297.5,1.3,1.8,305.9,0.00,13.0,13.9,"04:24:48",1
"16/11/19","04:40",0.0,13.3,97.9,1010.9,306.7,1.2,1.7,318.6,0.00,13.0,13.8,"04:38:24",1
"16/11/19","04:50",0.2,13.4,97.9,1010.7,324.7,1.3,1.9,326.1,0.00,13.1,14.0,"04:47:20",1
"16/11/19","05:00",0.0,13.3,97.9,1010.7,313.2,1.5,1.8,331.4,0.00,13.0,13.9,"04:51:20",1
"16/11/19","05:10",0.0,13.4,98.0,1010.4,315.8,1.0,1.7,311.3,0.00,13.1,13.7,"05:07:52",1
"16/11/19","05:20",0.2,13.5,97.0,1010.2,286.6,0.8,1.1,283.5,0.00,13.1,13.9,"05:10:24",1
"16/11/19","05:30",0.0,13.3,97.8,1010.0,293.7,1.0,2.0,313.1,0.00,13.0,13.9,"05:29:12",1
"16/11/19","05:40",0.2,13.4,98.0,1010.2,279.2,1.3,1.8,303.8,0.00,13.1,13.8,"05:30:08",1
"16/11/19","05:50",0.0,13.6,97.1,1009.7,299.2,1.3,2.1,313.2,0.00,13.2,13.7,"05:43:12",1
"16/11/19","06:00",0.0,13.4,97.8,1009.5,309.0,1.3,2.1,309.6,0.00,13.1,13.7,"05:52:16",1
"16/11/19","06:10",0.0,13.4,97.9,1009.5,302.1,1.3,2.5,316.4,0.00,13.1,13.9,"06:02:40",1
"16/11/19","06:20",0.0,13.4,98.1,1009.0,285.8,1.2,1.6,315.3,0.00,13.1,13.9,"06:19:12",1
"16/11/19","06:30",0.0,13.6,97.3,1009.3,311.4,1.6,2.4,325.0,0.00,13.2,14.1,"06:26:24",1
"16/11/19","06:40",0.0,13.5,97.9,1009.0,281.1,1.1,1.7,307.4,0.00,13.2,13.8,"06:30:24",1
"16/11/19","06:50",0.0,13.4,98.1,1009.0,292.9,1.2,1.3,309.6,0.00,13.1,13.8,"06:45:44",1
"16/11/19","07:00",0.0,13.7,97.3,1008.8,313.7,1.6,2.4,320.9,0.00,13.3,13.9,"06:55:04",1
"16/11/19","07:10",0.0,13.5,98.0,1009.3,301.4,1.3,1.9,318.2,0.00,13.2,14.0,"07:02:00",1
"16/11/19","07:20",0.0,13.8,97.3,1009.0,319.6,1.0,2.2,330.9,0.00,13.4,13.9,"07:10:24",1
"16/11/19","07:30",0.0,13.7,97.9,1009.0,309.6,1.7,2.1,321.0,0.00,13.4,14.0,"07:28:48",1
"16/11/19","07:40",0.0,13.6,98.1,1009.3,294.3,1.3,2.1,318.4,0.00,13.3,13.9,"07:31:12",1
"16/11/19","07:50",0.0,13.9,97.3,1009.0,301.0,1.0,1.9,323.7,0.00,13.5,13.8,"07:49:36",1
"16/11/19","08:00",0.0,13.7,98.0,1009.0,305.0,1.3,1.8,313.4,0.00,13.4,13.9,"07:50:16",1
"16/11/19","08:10",0.0,14.0,97.3,1009.0,306.8,1.6,1.9,312.7,0.00,13.6,14.0,"08:05:12",1
"16/11/19","08:20",0.2,13.9,98.0,1009.3,306.1,1.5,2.0,321.1,0.00,13.6,14.1,"08:10:32",1
"16/11/19","08:30",0.8,14.1,97.3,1009.5,287.1,1.0,1.2,321.4,0.00,13.7,14.0,"08:29:20",1
"16/11/19","08:40",0.6,14.1,98.0,1009.0,280.8,0.6,1.4,308.1,0.00,13.8,13.9,"08:39:36",1
"16/11/19","08:50",0.4,14.3,97.2,1008.8,329.5,1.2,1.8,334.4,0.01,13.9,14.1,"08:44:16",1
"16/11/19","09:00",0.0,14.2,97.9,1008.8,286.2,1.0,1.4,305.5,0.01,13.9,14.1,"08:57:44",1
"16/11/19","09:10",0.2,14.3,98.1,1008.8,311.8,1.0,1.4,320.3,0.01,14.0,14.1,"09:04:00",1
"16/11/19","09:20",0.0,14.7,97.3,1008.6,290.6,0.8,1.3,334.1,0.02,14.3,14.0,"09:19:28",1
"16/11/19","09:30",0.0,14.5,97.9,1008.6,317.7,1.3,1.8,326.8,0.00,14.2,14.2,"09:24:24",1
"16/11/19","09:40",0.0,14.6,98.1,1009.0,315.2,1.2,1.8,316.1,0.01,14.3,14.1,"09:30:08",1
"16/11/19","09:50",0.0,14.9,97.2,1008.3,321.7,1.2,1.9,339.5,0.02,14.5,14.4,"09:43:54",1
"16/11/19","10:00",0.0,14.8,97.9,1008.1,295.6,1.1,2.2,318.2,0.03,14.5,14.2,"09:56:28",1
"16/11/19","10:10",0.0,14.9,97.9,1007.6,250.1,0.6,1.1,256.2,0.04,14.6,14.4,"10:01:28",1
"16/11/19","10:20",0.0,15.2,98.0,1007.8,304.6,1.2,1.7,315.0,0.10,14.9,14.5,"10:12:40",1
"16/11/19","10:30",0.0,15.8,96.9,1007.6,301.3,0.8,1.9,339.5,0.11,15.3,14.4,"10:20:08",1
"16/11/19","10:40",0.0,15.6,96.9,1007.8,296.9,0.8,1.6,333.7,0.05,15.1,14.4,"10:39:20",1
"16/11/19","10:50",0.0,15.6,97.2,1007.6,229.7,0.3,1.2,314.5,0.04,15.2,14.6,"10:40:16",1
"16/11/19","11:00",0.0,15.6,96.8,1007.6,319.5,0.7,1.3,322.1,0.03,15.1,14.4,"10:59:04",1
"16/11/19","11:10",0.0,15.8,96.8,1007.4,303.8,0.8,1.6,326.2,0.05,15.3,14.6,"11:05:12",1
"16/11/19","11:20",0.0,15.9,96.6,1007.1,262.9,0.7,1.1,244.1,0.09,15.4,14.7,"11:11:04",1
"16/11/19","11:30",0.0,16.3,95.8,1007.4,302.5,1.0,1.7,340.2,0.03,15.7,14.7,"11:21:36",1
"16/11/19","11:40",0.0,16.5,95.6,1007.1,266.7,1.0,1.8,243.6,0.13,15.8,14.8,"11:36:24",1
"16/11/19","11:50",0.0,17.1,92.5,1007.4,278.7,0.8,1.7,324.3,0.14,15.9,14.8,"11:45:52",1
"16/11/19","12:00",0.0,17.2,91.8,1006.9,278.7,0.6,1.6,244.4,0.07,15.9,14.9,"11:50:08",1
"16/11/19","12:10",0.0,17.4,91.0,1006.7,2.9,0.2,0.9,110.1,0.11,16.0,15.0,"12:09:36",1
"16/11/19","12:20",0.0,17.7,90.8,1006.7,105.7,0.3,0.9,112.0,0.14,16.2,15.2,"12:16:24",1
"16/11/19","12:30",0.0,18.0,88.8,1006.2,239.3,0.5,1.1,226.7,0.18,16.2,15.2,"12:24:00",1
"16/11/19","12:40",0.0,18.4,86.9,1006.4,211.5,0.6,1.4,229.8,0.25,16.2,15.3,"12:34:08",1
"16/11/19","12:50",0.0,18.1,85.1,1006.2,230.1,0.5,1.1,111.1,0.17,15.6,15.5,"12:49:44",1
"16/11/19","13:00",0.0,18.0,85.7,1006.2,209.5,0.8,1.9,228.5,0.07,15.6,15.7,"12:56:08",1
"16/11/19","13:10",0.0,17.5,86.2,1006.4,226.0,1.1,2.2,235.2,0.03,15.2,15.6,"13:02:16",1
"16/11/19","13:20",0.0,17.4,87.3,1006.7,214.2,0.3,1.2,240.5,0.03,15.3,15.8,"13:14:40",1
"16/11/19","13:30",0.0,17.5,87.5,1006.2,238.3,0.5,1.4,232.7,0.05,15.4,15.7,"13:22:16",1
"16/11/19","13:40",0.0,17.8,85.9,1006.2,227.8,0.6,1.8,239.5,0.12,15.5,15.9,"13:30:02",1
"16/11/19","13:50",0.0,18.3,84.3,1006.0,223.5,1.1,2.2,219.2,0.15,15.6,15.7,"13:48:48",1
"16/11/19","14:00",0.0,18.0,84.3,1006.2,220.4,1.0,1.9,218.0,0.04,15.4,15.9,"13:57:04",1
"16/11/19","14:10",0.0,17.9,85.0,1006.0,221.3,0.7,2.1,199.4,0.07,15.4,15.9,"14:00:16",1
"16/11/19","14:20",0.0,18.1,84.7,1006.0,255.3,0.5,1.0,242.5,0.08,15.5,15.9,"14:14:56",1
"16/11/19","14:30",0.0,18.0,84.7,1006.0,163.5,0.5,1.6,97.8,0.08,15.4,15.9,"14:27:44",1
"16/11/19","14:40",0.0,18.2,84.5,1006.0,254.1,0.7,1.6,216.5,0.09,15.6,15.8,"14:35:44",1
"16/11/19","14:50",0.0,18.1,84.7,1006.0,239.2,0.7,1.3,248.2,0.03,15.5,15.9,"14:42:16",1
"16/11/19","15:00",0.0,17.8,85.9,1006.0,241.0,0.3,0.8,102.0,0.01,15.5,16.2,"14:51:04",1
"16/11/19","15:10",0.0,17.8,86.5,1006.2,235.9,1.0,2.4,233.8,0.04,15.6,16.0,"15:06:16",1
"16/11/19","15:20",0.0,17.7,87.1,1006.2,245.9,0.7,1.8,198.9,0.02,15.6,15.9,"15:10:24",1
"16/11/19","15:30",0.0,17.7,87.2,1006.2,25.1,0.2,0.8,255.4,0.04,15.6,16.0,"15:29:28",1
"16/11/19","15:40",0.0,17.7,87.1,1006.4,317.6,0.2,0.6,314.1,0.01,15.6,16.2,"15:34:00",1
"16/11/19","15:50",0.0,17.5,87.3,1006.2,31.7,0.3,1.0,0.6,0.00,15.4,15.9,"15:42:32",1
"16/11/19","16:00",0.0,17.4,87.9,1006.4,351.2,0.2,0.8,316.5,0.00,15.4,15.8,"15:55:36",1
"16/11/19","16:10",0.0,17.3,88.9,1006.4,359.1,0.6,1.7,348.5,0.00,15.5,15.8,"16:08:48",1
"16/11/19","16:20",0.0,17.2,89.8,1006.7,334.6,1.5,2.2,338.2,0.00,15.6,16.1,"16:12:40",1
"16/11/19","16:30",0.0,17.1,90.6,1007.1,326.7,1.2,1.8,332.8,0.00,15.6,16.0,"16:20:16",1
"16/11/19","16:40",0.0,17.0,91.3,1007.1,314.0,1.0,1.3,306.0,0.00,15.6,15.8,"16:38:00",1
"16/11/19","16:50",0.0,16.9,91.8,1007.1,316.8,1.1,1.6,318.0,0.00,15.6,15.8,"16:43:12",1
"16/11/19","17:00",0.0,16.8,92.4,1007.1,312.7,1.0,1.2,321.4,0.00,15.6,15.7,"16:52:40",1
"16/11/19","17:10",0.0,16.6,92.7,1006.9,310.8,0.8,1.1,319.6,0.00,15.5,15.9,"17:03:04",1
"16/11/19","17:20",0.0,16.6,93.1,1007.4,306.6,1.1,1.4,325.5,0.00,15.5,15.9,"17:19:12",1
"16/11/19","17:30",0.0,16.5,93.4,1007.4,319.1,1.2,1.6,337.5,0.00,15.5,15.8,"17:23:52",1
"16/11/19","17:40",0.0,16.4,93.7,1007.6,319.7,1.2,1.4,320.2,0.00,15.4,16.0,"17:36:00",1
"16/11/19","17:50",0.0,16.3,94.0,1007.8,297.1,0.7,1.3,308.9,0.00,15.4,15.7,"17:42:40",1
"16/11/19","18:00",0.0,16.3,94.3,1007.6,291.7,0.8,1.0,297.1,0.00,15.4,15.8,"17:59:52",1
"16/11/19","18:10",0.0,16.2,94.6,1007.8,320.8,1.2,2.2,333.3,0.00,15.4,15.6,"18:00:02",1
"16/11/19","18:20",0.0,16.2,94.6,1007.8,324.6,1.3,1.8,343.7,0.00,15.4,15.7,"18:10:08",1
"16/11/19","18:30",0.0,16.1,94.7,1008.1,299.8,0.7,1.3,322.1,0.00,15.3,15.6,"18:28:16",1
"16/11/19","18:40",0.0,15.9,94.8,1008.3,317.2,1.1,1.6,323.1,0.00,15.1,15.5,"18:33:52",1
"16/11/19","18:50",0.0,15.8,95.1,1008.6,314.2,1.2,1.6,316.2,0.00,15.1,15.6,"18:48:08",1
"16/11/19","19:00",0.0,15.7,95.4,1008.6,320.8,1.0,1.8,335.6,0.00,15.0,15.7,"18:54:56",1
"16/11/19","19:10",0.0,15.7,95.6,1008.8,293.7,0.5,1.4,331.1,0.00,15.0,15.5,"19:09:28",1
"16/11/19","19:20",0.0,15.5,95.8,1009.0,328.9,1.3,1.9,318.1,0.00,14.9,15.4,"19:14:40",1
"16/11/19","19:30",0.0,15.3,96.0,1009.0,299.3,1.0,1.4,326.7,0.00,14.7,15.5,"19:20:08",1
"16/11/19","19:40",0.0,15.2,96.4,1009.3,313.0,1.1,1.8,335.6,0.00,14.7,15.6,"19:37:52",1
"16/11/19","19:50",0.0,15.0,96.3,1009.0,309.5,1.2,1.6,328.8,0.00,14.5,15.4,"19:41:36",1
"16/11/19","20:00",0.0,14.7,96.5,1009.3,313.5,1.0,1.4,314.9,0.00,14.2,15.2,"19:55:44",1
"16/11/19","20:10",0.0,14.5,96.5,1009.5,318.9,1.2,1.7,321.4,0.00,14.0,15.3,"20:06:44",1
"16/11/19","20:20",0.0,14.3,96.9,1009.5,301.2,0.7,1.2,316.6,0.00,13.9,15.1,"20:11:04",1
"16/11/19","20:30",0.0,14.2,96.9,1009.3,284.1,1.0,1.1,255.7,0.00,13.8,15.3,"20:21:28",1
"16/11/19","20:40",0.0,14.2,96.9,1009.5,335.0,1.3,1.8,319.1,0.00,13.8,15.1,"20:37:28",1
"16/11/19","20:50",0.0,13.7,96.9,1009.3,316.5,1.3,1.9,314.5,0.00,13.3,15.0,"20:43:44",1
"16/11/19","21:00",0.0,13.4,97.2,1009.5,295.5,0.8,1.4,311.1,0.00,13.0,15.2,"20:50:02",1
"16/11/19","21:10",0.0,13.6,97.9,1009.3,322.5,1.5,1.8,322.1,0.00,13.3,15.1,"21:02:48",1
"16/11/19","21:20",0.0,13.5,97.3,1009.7,320.4,0.8,1.4,328.9,0.00,13.1,15.0,"21:10:24",1
"16/11/19","21:30",0.0,13.4,97.9,1010.2,319.6,1.1,1.6,319.4,0.00,13.1,15.0,"21:29:20",1
"16/11/19","21:40",0.0,13.3,97.5,1009.7,319.7,0.8,1.6,322.6,0.00,13.0,14.7,"21:32:56",1
"16/11/19","21:50",0.0,13.0,97.7,1010.0,291.5,0.7,1.2,306.6,0.00,12.7,14.7,"21:47:20",1
"16/11/19","22:00",0.0,13.3,98.6,1010.0,319.1,1.2,1.8,342.1,0.00,13.1,14.4,"21:59:04",1
"16/11/19","22:10",0.0,13.7,97.2,1009.7,320.6,1.2,1.9,328.7,0.00,13.3,14.6,"22:02:16",1
"16/11/19","22:20",0.0,13.5,97.9,1009.7,312.7,0.7,1.3,328.7,0.00,13.2,14.7,"22:11:44",1
"16/11/19","22:30",0.0,13.2,97.9,1009.5,301.3,0.3,0.6,291.6,0.00,12.9,14.5,"22:20:08",1
"16/11/19","22:40",0.0,13.4,98.4,1009.7,335.6,1.3,2.4,338.4,0.00,13.2,14.5,"22:38:32",1
"16/11/19","22:50",0.0,13.3,97.1,1009.7,319.7,1.2,1.8,323.0,0.00,12.9,14.7,"22:41:12",1
"16/11/19","23:00",0.0,12.8,97.7,1010.0,311.5,0.7,1.1,331.3,0.00,12.5,14.5,"22:52:40",1
"16/11/19","23:10",0.0,12.5,98.1,1010.0,303.4,1.2,1.6,315.7,0.00,12.2,14.5,"23:05:52",1
"16/11/19","23:20",0.0,12.9,97.9,1009.7,287.1,1.1,1.4,313.8,0.00,12.6,14.5,"23:16:48",1
"16/11/19","23:30",0.0,13.1,98.6,1009.7,330.3,1.1,1.7,321.6,0.00,12.9,14.6,"23:20:32",1
"16/11/19","23:40",0.0,13.1,97.3,1010.0,321.2,1.3,1.6,324.1,0.00,12.7,14.1,"23:32:16",1
"16/11/19","23:50",0.0,12.7,98.2,1009.7,312.1,0.8,1.1,327.7,0.00,12.5,14.4,"23:40:08",1
"16/11/19","24:00",0.0,13.1,97.6,1010.0,312.4,0.7,1.4,319.3,0.00,12.8,14.2,"23:55:20",1
